GFSSW_700_rhum_105.txt.gz
RH
35 36 37 36 35 32 32 33 34 36 39 42 44 45 43 40 38 37 36 38 39 36 37 39 40 41 41 33 29 28 30 26 19 16 14 12 12 10 14 22 21 22 23 22 25
2 3 6 10 17 23 24 23 22 23 25 30 34 38 41 43 41 38 34 35 35 38 36 36 37 40 40 37 31 30 30 29 25 22 19 16 14 15 15 24 24 24 29 27 24
1 1 1 1 1 3 10 17 20 18 18 18 20 24 30 34 39 39 39 36 34 36 38 35 30 34 39 36 34 33 32 30 28 26 23 21 19 17 16 17 23 25 27 27 27
1 1 1 1 1 1 1 2 5 15 14 11 12 12 16 21 23 28 32 31 30 31 33 34 31 27 35 39 37 35 34 33 31 29 27 25 24 22 20 18 17 20 24 25 24
1 1 1 1 1 1 1 1 1 2 5 13 13 11 10 14 28 19 28 26 22 24 26 26 27 24 27 33 38 36 35 34 31 31 30 29 28 27 26 25 19 16 18 24 26
1 1 1 1 1 1 1 1 1 1 2 2 7 12 15 26 26 18 17 21 26 26 26 32 26 18 17 23 32 36 37 36 33 32 32 31 30 30 29 27 26 22 21 19 26
1 2 2 2 2 2 2 1 1 1 1 1 2 5 10 9 20 24 15 14 16 17 18 31 29 16 18 23 27 32 38 38 37 36 36 36 34 32 31 30 30 29 30 28 24
2 3 4 4 3 3 2 2 2 1 1 1 1 2 2 4 10 13 21 21 9 12 14 25 35 31 31 34 31 32 33 37 39 38 36 37 33 35 32 32 32 34 35 35 33
4 6 6 5 4 2 2 1 2 2 2 1 1 2 2 4 7 10 13 24 16 10 13 15 18 30 29 33 39 44 47 46 42 40 40 36 33 35 32 34 34 36 36 38 37
5 5 7 6 3 3 4 5 6 10 18 9 2 6 2 8 9 9 10 13 18 10 14 15 15 13 26 39 34 40 44 44 47 44 41 38 36 39 39 40 41 40 39 38 37
5 10 11 4 5 6 7 9 17 21 46 100 84 33 8 14 19 18 14 15 26 20 16 12 15 14 14 18 27 30 33 39 40 43 45 39 38 42 41 37 37 36 34 34 35
9 10 6 5 7 8 15 34 45 77 80 42 89 94 19 13 8 12 18 28 37 25 15 17 15 19 20 20 19 23 29 41 46 46 42 36 32 32 27 22 21 20 20 21 21
10 7 5 7 6 8 32 38 73 94 96 40 54 43 28 15 7 17 37 52 52 44 24 30 32 21 27 32 25 23 27 40 41 32 32 32 20 16 17 18 17 16 15 14 17
9 6 8 7 6 8 36 51 81 69 89 58 64 46 23 11 14 6 24 50 56 53 50 43 28 29 30 25 22 19 17 20 23 44 36 19 18 21 22 19 19 22 24 24 24
8 8 10 7 6 11 44 59 72 68 87 72 92 82 76 37 25 14 8 17 21 17 46 44 45 42 39 31 29 20 19 20 19 25 27 30 36 30 32 21 23 27 32 25 25
9 10 11 8 11 24 56 62 50 77 82 84 96 98 96 62 69 59 43 14 12 31 50 42 37 53 50 44 43 31 40 41 46 41 47 43 38 34 32 31 32 35 27 25 23
10 12 12 10 15 28 46 59 64 92 82 94 93 97 98 85 65 72 54 37 23 53 52 48 43 41 43 43 61 52 44 52 66 56 48 37 41 34 37 36 33 31 26 27 31
12 13 13 13 23 20 33 59 87 96 100 80 95 97 97 96 82 73 52 49 43 35 24 34 24 21 20 35 34 50 45 42 47 60 44 46 44 42 41 42 39 38 40 39 40
13 14 14 19 26 14 26 59 82 95 93 75 60 84 96 97 97 74 75 93 79 56 46 42 37 26 35 19 30 51 50 42 41 54 52 46 48 42 40 40 45 49 42 37 34
8 13 17 26 27 21 22 52 82 90 79 56 70 74 95 91 93 96 96 100 100 78 58 55 47 54 50 50 33 32 39 49 50 53 50 43 49 43 41 43 43 45 43 41 36
7 13 23 29 48 41 24 46 84 86 43 61 71 91 91 79 90 97 97 92 96 99 79 65 57 59 45 52 42 39 36 39 41 45 38 43 36 44 47 50 45 43 47 44 38
12 19 29 30 48 71 77 60 44 40 46 71 92 99 89 74 77 86 74 74 87 85 100 90 72 64 53 54 56 58 55 48 42 51 52 43 39 44 50 52 53 49 47 42 48
25 23 35 37 47 78 78 95 88 77 80 94 91 95 75 74 68 67 63 73 89 85 95 98 93 75 71 77 75 69 59 54 46 44 46 48 46 66 53 52 50 49 51 57 62
47 36 41 64 62 69 80 88 91 81 97 93 100 94 78 66 73 61 68 70 87 100 100 96 98 81 64 71 64 68 61 57 55 59 52 52 49 58 52 48 49 54 62 63 71
76 71 52 65 97 92 82 88 96 97 96 90 94 98 97 83 84 90 92 73 80 96 98 100 97 89 73 69 75 64 64 63 59 56 58 56 53 56 53 56 59 56 76 75 66
84 85 85 57 53 71 86 87 97 94 90 91 89 80 99 100 100 98 97 80 89 97 96 96 96 90 84 81 90 74 70 71 73 71 62 60 61 59 61 47 62 71 70 75 74
84 86 93 89 67 49 57 74 80 84 81 90 87 71 83 88 81 76 77 76 73 82 95 97 91 82 79 75 58 56 51 59 58 55 60 67 55 54 51 51 74 76 74 78 98

GFSSW_700_rhum_111.txt.gz
RH
1 1 1 1 1 1 1 1 1 1 1 0 0 0 1 9 28 36 39 37 40 40 38 37 38 40 39 40 39 41 36 31 26 23 19 16 17 18 17 12 18 20 21 28 32
1 1 1 1 1 1 1 1 1 1 1 1 1 1 1 0 0 4 22 35 37 39 41 36 37 37 39 40 43 41 37 34 28 24 21 20 20 19 20 18 19 26 30 26 22
1 1 1 1 1 1 1 1 1 1 1 1 1 1 1 1 1 4 3 8 27 35 37 40 34 36 38 42 44 40 38 35 30 28 25 23 22 22 21 20 17 23 26 33 38
1 1 1 1 1 1 1 1 1 1 1 1 1 1 1 1 3 5 2 12 23 28 30 37 38 34 36 40 39 42 41 39 37 32 30 28 28 25 23 23 20 19 22 30 33
1 1 1 1 1 1 1 1 1 2 2 2 2 2 2 2 1 2 2 1 1 14 28 29 33 43 38 40 38 38 39 40 39 36 35 34 33 30 29 26 26 26 24 29 30
1 1 1 1 1 1 1 2 3 4 4 4 4 3 3 2 2 2 2 2 3 3 20 23 37 41 40 42 37 35 39 38 40 39 39 40 37 36 34 35 33 33 33 30 28
1 1 1 1 1 1 2 4 6 6 5 4 3 2 2 1 1 1 1 1 3 10 7 19 30 39 39 39 37 35 33 34 35 37 40 41 40 37 37 36 38 32 35 33 31
2 2 1 2 2 2 3 5 6 6 5 3 2 2 1 2 2 2 2 1 2 5 15 20 42 40 42 41 38 38 35 33 31 32 34 38 31 31 31 33 34 33 34 34 33
2 2 2 2 2 3 8 8 7 5 3 4 3 4 3 6 16 46 22 4 6 2 5 16 14 20 42 42 43 40 36 34 32 30 29 31 31 30 30 33 34 35 35 35 35
2 2 2 2 3 8 9 7 4 4 4 9 20 29 39 44 60 73 35 96 60 48 40 9 25 33 35 37 39 37 37 33 29 27 29 30 33 33 31 32 32 34 36 36 37
2 2 2 4 10 10 7 4 10 21 25 5 11 20 25 53 45 53 63 96 99 57 42 39 27 28 26 32 36 36 36 33 34 30 38 39 38 34 33 34 36 39 40 39 39
2 3 5 11 12 8 4 4 4 7 3 20 48 75 90 95 90 67 55 92 98 75 50 35 25 15 26 26 34 38 38 46 36 37 39 36 36 34 32 32 32 35 38 38 36
3 4 10 16 10 6 5 4 5 9 14 35 68 53 51 73 75 65 86 95 97 92 56 29 20 17 24 26 26 34 38 44 35 36 39 35 35 30 26 27 29 32 34 30 26
3 8 17 11 10 5 7 6 12 19 28 58 71 68 56 86 64 49 72 88 98 96 48 25 19 20 23 24 27 28 38 42 47 52 54 49 38 28 26 20 21 22 21 21 22
4 14 19 8 7 6 7 6 20 27 51 51 59 58 44 94 58 70 51 82 85 96 75 34 26 25 26 25 32 32 41 53 52 49 42 35 40 30 20 17 20 21 23 29 38
5 19 17 8 6 6 8 4 24 65 47 46 49 64 51 95 85 86 56 54 74 80 81 34 33 36 32 28 34 39 42 41 40 41 36 32 26 22 20 22 18 20 30 48 60
8 25 14 7 7 7 8 5 71 66 52 50 48 61 48 79 87 63 46 48 57 49 77 60 72 35 36 40 42 47 54 55 56 48 41 28 25 21 19 23 26 35 49 61 64
13 27 14 6 6 7 8 25 76 56 58 56 48 63 80 88 68 90 50 30 35 30 34 34 45 60 48 36 44 44 42 58 60 52 36 27 28 23 21 27 33 44 54 58 61
19 27 6 5 6 8 8 76 53 77 64 59 47 55 67 69 96 93 80 81 54 50 56 32 33 36 49 45 42 40 35 36 43 46 46 37 29 40 30 34 53 51 48 50 57
25 15 6 6 8 10 46 54 46 60 68 65 52 58 62 64 87 96 95 98 90 85 93 57 32 29 31 43 39 37 35 36 39 37 34 22 28 30 37 43 50 47 52 55 67
30 52 12 8 9 75 67 63 70 75 74 81 72 72 61 68 75 91 96 98 95 99 98 80 62 32 27 32 28 29 34 33 29 26 27 29 28 39 44 47 52 50 57 62 74
32 73 19 7 93 51 82 90 50 84 78 84 94 76 78 76 67 86 86 90 96 99 99 94 66 47 40 35 28 19 28 31 28 26 25 31 63 43 50 50 54 56 67 77 85
52 49 12 7 97 69 79 81 88 91 87 90 92 82 73 86 83 64 79 87 78 95 89 83 75 90 93 54 35 26 25 35 36 33 41 36 27 50 58 61 69 74 84 83 82
38 47 79 60 33 60 82 81 80 91 92 88 88 77 72 78 75 85 68 71 90 86 88 77 83 96 84 92 58 50 33 28 32 35 30 32 75 71 64 61 94 83 76 59 54
41 51 49 97 95 88 86 84 75 81 81 80 82 87 77 74 70 69 64 68 68 91 99 100 96 84 89 87 72 87 72 47 41 42 43 47 53 85 96 79 69 73 62 58 55
47 65 83 94 32 56 80 72 77 89 82 76 81 84 83 74 72 71 77 76 83 88 98 97 93 82 61 55 59 56 48 46 41 36 38 35 34 82 68 58 66 55 49 53 78
48 58 64 94 92 86 72 75 81 85 79 82 87 88 86 80 86 65 69 92 93 91 94 97 100 83 56 55 53 50 49 48 43 42 48 49 67 98 91 98 78 64 97 98 81

GFSSW_700_rhum_114.txt.gz
RH
4 1 1 1 1 1 1 1 1 1 1 1 1 1 1 1 1 1 2 9 23 32 36 40 39 37 38 38 43 49 46 38 31 26 23 20 18 15 16 15 13 15 19 25 33
1 1 1 1 1 1 1 1 1 1 1 1 1 1 1 1 1 1 1 1 2 7 26 36 39 37 37 38 43 49 46 38 33 28 25 22 20 18 18 18 16 14 20 24 23
1 1 1 1 1 1 1 1 1 1 1 1 1 1 1 1 1 8 3 3 3 7 13 26 35 40 35 39 42 43 39 38 35 30 28 25 22 20 19 18 19 17 20 25 33
1 1 1 1 1 1 1 1 1 1 1 1 1 1 1 1 2 2 2 1 2 1 1 11 29 36 38 36 38 40 42 40 36 33 31 27 26 23 22 21 20 18 19 23 26
1 1 1 1 1 1 1 1 1 1 1 1 2 2 1 1 1 2 2 1 1 2 2 1 14 39 41 38 35 36 36 38 37 36 35 34 31 28 26 24 23 22 20 23 30
1 1 1 1 1 1 1 2 2 2 2 3 4 3 3 2 2 2 1 1 1 1 1 2 2 36 44 43 41 34 35 36 35 36 36 36 34 32 32 29 27 27 24 22 24
1 1 1 1 1 2 2 2 2 2 3 4 4 3 2 2 2 1 2 2 2 4 2 2 3 25 31 39 41 41 39 38 35 34 37 36 36 36 35 33 33 26 30 30 29
1 1 1 2 2 2 2 2 2 3 4 4 2 2 1 3 6 11 28 37 17 3 7 32 31 23 33 32 39 37 37 37 37 32 33 34 37 37 36 37 36 35 34 32 34
2 2 2 2 2 2 2 2 3 4 4 2 2 2 5 9 28 30 28 49 48 16 22 45 42 48 44 33 34 39 36 36 35 33 30 32 33 34 36 32 32 32 32 34 34
2 2 2 2 2 2 3 4 5 5 2 2 4 14 40 31 20 34 40 39 61 62 75 65 46 41 50 39 38 39 39 35 33 32 31 30 30 31 31 30 31 32 32 33 33
2 2 2 2 2 4 4 6 5 5 2 4 13 17 34 36 33 32 48 84 78 60 56 80 52 42 37 47 42 36 33 34 35 34 32 30 32 28 27 29 30 30 32 34 36
2 2 2 2 4 8 8 6 3 3 3 23 44 51 58 69 53 28 61 76 82 75 56 90 84 40 34 29 36 33 31 32 32 33 41 42 45 33 31 32 31 33 33 34 36
3 2 3 4 8 10 7 4 3 9 13 59 67 61 41 48 64 74 61 79 76 79 77 98 75 39 38 24 25 27 30 33 34 37 74 57 56 38 36 34 32 32 34 36 38
3 3 3 9 10 9 7 4 4 13 36 48 49 49 46 58 70 64 40 66 88 76 89 98 52 39 35 27 19 24 26 32 34 40 84 57 42 35 33 33 29 28 28 31 36
3 3 6 14 14 5 4 5 4 21 56 45 41 37 45 68 64 59 59 63 67 87 99 94 87 48 28 23 17 22 23 28 36 51 69 59 48 42 41 39 35 30 21 24 29
3 4 10 18 12 4 4 6 9 83 53 35 42 38 45 66 71 69 77 81 58 79 78 91 71 54 25 19 17 22 32 41 47 52 56 51 47 39 38 37 33 26 22 21 22
4 6 18 17 7 5 6 7 92 69 40 38 38 39 47 58 54 84 92 55 41 59 76 64 68 59 34 26 20 34 39 51 66 57 58 45 44 41 27 26 30 24 21 32 42
5 9 21 9 5 5 7 89 77 51 44 38 39 38 46 53 44 59 56 49 31 44 47 34 89 52 32 33 26 42 42 53 55 55 43 38 36 35 29 22 24 28 45 60 70
5 17 19 6 5 6 35 85 46 51 42 50 45 40 46 51 64 78 96 100 92 81 92 84 54 60 42 37 39 43 45 48 50 62 55 36 34 32 25 33 40 44 53 66 61
10 19 15 7 6 9 92 62 41 44 58 61 48 59 53 56 61 72 86 89 99 82 92 93 89 56 64 41 40 43 48 50 51 52 61 77 33 44 28 44 53 79 50 52 60
15 51 42 10 8 75 71 63 66 64 66 63 62 64 68 61 67 59 92 81 75 70 67 92 83 50 42 54 57 53 40 42 41 37 38 50 67 45 41 36 58 46 49 55 65
21 94 24 6 86 83 80 71 72 67 64 65 69 64 63 65 74 59 63 69 78 91 89 96 92 82 43 27 29 34 35 38 42 37 29 31 49 53 50 46 50 58 68 71 92
46 84 23 7 97 65 66 67 69 68 69 70 72 68 65 60 77 82 60 64 70 94 96 81 85 88 63 47 28 24 23 28 37 30 44 46 36 40 72 62 74 55 69 72 67
22 53 94 87 64 59 75 70 66 78 72 66 69 82 70 62 60 80 67 59 68 84 92 96 95 98 98 97 93 40 20 21 27 36 36 51 55 75 84 92 76 65 59 48 56
21 59 55 92 94 84 79 76 63 63 67 68 70 84 70 73 71 68 64 65 69 96 90 99 99 84 81 69 85 89 54 50 26 33 34 77 76 87 78 65 86 66 68 66 47
32 58 91 90 66 62 80 64 63 68 72 68 70 75 78 77 83 77 77 78 78 74 80 97 95 79 66 45 53 80 69 68 55 40 55 52 63 79 98 94 85 71 61 54 45
25 39 61 94 87 80 80 68 63 64 67 68 71 77 78 79 91 67 81 90 83 86 80 94 94 92 56 52 47 42 45 44 38 38 48 56 95 99 99 95 88 73 55 60 87

GFSSW_700_rhum_117.txt.gz
RH
18 10 4 2 1 1 1 1 1 1 1 1 1 1 1 1 1 1 1 1 2 3 3 21 34 38 39 38 40 44 59 48 42 34 25 19 18 21 19 15 14 15 17 17 23
5 2 1 1 1 1 1 1 1 1 1 1 1 1 1 1 1 1 3 3 3 3 3 3 7 33 39 38 37 48 48 43 38 30 26 22 20 22 24 18 16 15 14 18 19
1 1 1 1 1 1 1 1 1 1 1 1 1 1 1 1 1 3 2 1 1 1 1 3 12 21 33 38 37 39 40 46 41 42 33 30 28 23 26 20 18 18 14 18 19
1 1 1 1 1 1 1 1 2 2 2 2 2 1 1 1 2 2 2 2 2 2 1 2 1 1 19 31 36 36 38 44 42 42 39 33 30 26 27 27 20 18 15 18 18
1 1 1 1 1 1 1 2 2 2 2 2 2 1 1 2 2 2 2 1 1 1 1 1 2 4 2 4 32 36 37 38 40 40 37 33 34 32 26 27 24 20 20 21 19
1 1 1 1 1 1 2 2 3 2 2 2 2 2 2 2 2 2 2 2 1 1 1 1 1 3 8 28 42 32 36 36 36 37 40 40 34 35 27 28 28 24 21 23 23
1 1 1 1 1 2 2 2 2 2 2 2 3 2 2 2 2 3 3 3 5 8 10 4 7 9 12 12 19 34 45 42 37 36 36 36 37 35 33 30 30 28 23 22 24
1 1 1 1 2 2 2 2 2 2 3 4 3 2 2 3 4 6 7 10 11 8 6 12 14 16 36 25 15 34 37 40 12 36 34 37 36 36 37 35 31 28 25 24 23
2 2 2 2 2 2 2 2 2 3 4 3 2 2 4 6 8 15 23 32 34 24 29 20 36 36 40 43 42 22 30 36 26 39 39 38 36 36 37 37 35 32 31 27 25
2 2 2 2 2 2 2 2 3 4 3 2 4 4 11 11 21 19 22 30 26 33 27 34 41 33 35 46 50 34 30 35 38 38 38 37 35 34 35 35 36 36 34 33 32
2 2 2 2 2 2 2 4 5 4 2 3 12 24 17 17 16 16 40 36 50 40 38 49 66 56 31 38 47 46 47 33 34 39 36 34 34 33 32 31 31 34 33 32 33
2 2 2 2 3 5 4 5 4 2 2 21 44 34 25 20 25 39 70 75 63 57 67 88 94 64 49 47 65 48 43 43 35 37 36 34 38 33 31 31 30 29 30 30 32
2 2 2 3 4 6 9 5 3 2 7 52 45 48 36 39 43 70 66 53 47 45 66 80 72 78 66 70 83 51 42 40 44 38 49 56 45 46 38 33 33 29 29 32 33
3 2 3 3 6 10 9 4 2 3 35 51 43 40 32 44 50 52 76 76 68 49 61 61 56 91 77 71 78 47 33 34 34 36 55 65 54 46 44 41 36 34 33 32 33
2 3 3 4 13 13 5 3 3 18 62 42 43 34 37 49 48 50 73 87 65 51 47 38 79 98 98 63 67 43 27 29 27 32 62 83 83 49 48 44 36 34 33 32 33
3 3 5 11 17 8 3 3 13 60 60 36 34 30 41 46 44 56 42 66 56 58 63 42 43 82 83 69 52 44 34 32 36 59 96 62 64 49 41 42 36 34 34 31 29
3 4 8 17 13 4 3 9 58 68 48 38 23 40 42 52 41 52 67 58 83 74 63 48 50 57 64 64 52 39 31 62 88 92 79 47 53 43 33 30 32 29 30 33 35
4 5 15 18 6 4 6 44 87 60 39 23 43 42 53 59 52 51 64 56 64 80 80 74 86 96 55 74 42 31 38 70 91 78 58 44 52 36 26 28 30 33 36 36 35
6 8 18 8 5 5 19 80 45 39 45 57 50 57 55 54 62 62 72 70 80 92 99 97 81 61 73 85 59 46 47 45 52 58 63 40 38 35 35 36 40 42 47 46 58
7 12 16 11 5 7 17 47 50 49 57 62 58 64 62 61 66 57 66 68 67 76 97 96 89 53 64 56 45 30 40 50 68 88 86 79 43 36 49 52 65 58 60 75 72
9 22 28 13 8 39 66 70 60 50 63 65 63 67 66 63 59 74 69 65 64 73 76 96 90 63 76 80 53 46 45 54 87 59 66 95 83 77 58 50 77 69 77 98 83
12 41 32 8 47 68 77 68 62 64 68 65 70 64 74 64 61 60 70 69 61 86 83 93 96 87 70 61 59 57 52 53 59 60 42 48 94 97 74 85 60 59 71 97 90
22 52 30 9 82 89 76 67 67 71 51 70 67 69 73 67 72 79 73 67 64 71 98 92 93 85 59 42 54 70 49 46 44 49 39 58 81 79 93 93 100 83 87 94 72
20 53 66 37 59 72 74 74 66 72 68 62 74 81 78 63 52 76 79 66 53 60 90 78 88 97 95 91 97 85 57 28 35 44 39 51 81 90 85 98 98 100 90 73 69
21 62 70 91 99 90 67 70 66 64 72 66 68 76 76 56 65 75 50 19 31 72 78 77 80 84 74 90 95 100 69 69 39 38 39 55 74 97 97 99 98 95 86 78 69
22 48 77 100 74 62 78 71 68 68 71 66 70 72 58 67 82 92 60 25 45 69 75 74 81 76 57 82 72 85 68 61 59 53 64 73 95 99 98 94 98 83 62 59 49
17 26 50 83 88 84 88 74 72 82 75 73 70 69 82 88 79 49 30 68 75 89 94 89 82 90 81 56 74 93 89 59 95 90 82 80 95 100 99 90 82 77 55 42 46